This is the latest recevied weather packets stored in our database for station/object K8DJB-1. If no packets are shown the sender has not sent any weather packets the latest 1 day(s).
| Time | Temp. | Humidity | Pressure | Rain* | Wind** | Luminosity | Snow |
|---|---|---|---|---|---|---|---|
| 1778028441 | 9.44° C | 60% | 1007.7 hPa | 0 mm | 0 m/s | - | - |
| 1778028141 | 10° C | 61% | 1007.8 hPa | 0 mm | 0 m/s | - | - |
| 1778027841 | 10° C | 59% | 1007.6 hPa | 0 mm | 0 m/s | - | - |
| 1778027541 | 10° C | 54% | 1007.6 hPa | 0 mm | 0 m/s | - | - |
| 1778027241 | 10° C | 51% | 1007.6 hPa | 0 mm | 0.45 m/s, 232° | - | - |
| 1778026941 | 10° C | 51% | 1007.7 hPa | 0 mm | 0.45 m/s, 232° | - | - |
| 1778026641 | 10° C | 52% | 1007.7 hPa | 0 mm | 0 m/s | - | - |
| 1778026341 | 10° C | 51% | 1007.7 hPa | 0 mm | 0.45 m/s, 232° | - | - |
| 1778026041 | 10.56° C | 50% | 1007.7 hPa | 0 mm | 0.89 m/s, 232° | - | - |
| 1778025741 | 10.56° C | 51% | 1007.7 hPa | 0 mm | 1.34 m/s, 233° | - | - |
| 1778025441 | 10.56° C | 50% | 1007.7 hPa | 0 mm | 0.89 m/s, 239° | - | - |
| 1778025141 | 10.56° C | 49% | 1007.7 hPa | 0 mm | 0.45 m/s, 243° | - | - |
| 1778024841 | 10.56° C | 50% | 1007.7 hPa | 0 mm | 0.89 m/s, 242° | - | - |
| 1778024520 | 10.56° C | 50% | 1007.7 hPa | 0 mm | 0.89 m/s, 239° | - | - |
| 1778024220 | 10.56° C | 49% | 1007.7 hPa | 0 mm | 1.34 m/s, 240° | - | - |
| 1778023920 | 10.56° C | 49% | 1007.7 hPa | 0 mm | 1.34 m/s, 219° | - | - |
| 1778023620 | 10.56° C | 48% | 1007.7 hPa | 0 mm | 0.45 m/s, 268° | - | - |
| 1778023320 | 10.56° C | 46% | 1007.8 hPa | 0 mm | 1.34 m/s, 272° | - | - |
| 1778023020 | 10.56° C | 46% | 1007.8 hPa | 0 mm | 1.34 m/s, 269° | - | - |
| 1778022720 | 10.56° C | 47% | 1007.7 hPa | 0 mm | 1.79 m/s, 257° | - | - |
| 1778022420 | 10.56° C | 47% | 1007.8 hPa | 0 mm | 1.34 m/s, 243° | - | - |
| 1778022120 | 10.56° C | 47% | 1007.9 hPa | 0 mm | 1.34 m/s, 223° | - | - |
| 1778021820 | 10.56° C | 45% | 1007.9 hPa | 0 mm | 2.68 m/s, 238° | - | - |
| 1778021520 | 10.56° C | 47% | 1007.8 hPa | 0 mm | 2.24 m/s, 274° | - | - |
| 1778021220 | 11.11° C | 45% | 1008 hPa | 0 mm | 2.24 m/s, 275° | - | - |
* Rain latest hour (hover to see other rain measurements)
** Current wind speed in m/s (hover to see current wind gust speed)